Tracking 29093 objects as of 15-Jul-2024
HD Live streaming from Space Station
objects crossing your sky now

STARLINK-3858

Track STARLINK-3858 now!
10-day predictions
STARLINK-3858 is classified as:


NORAD ID: 52553
Int'l Code: 2022-051W
Perigee: 546.1 km
Apogee: 547.6 km
Inclination: 53.2 °
Period: 95.4 minutes
Semi major axis: 6917 km
RCS: Unknown
Launch date: May 13, 2022
Source: United States (US)
Launch site: AIR FORCE WESTERN TEST RANGE (AFWTR)
Your satellite tracking list
Your tracking list is empty




NASA's NSSDC Master Catalog

Two Line Element Set (TLE):
1 52553U 22051W   24196.71930164  .00001825  00000-0  13269-3 0  9993
2 52553  53.2181 315.6218 0001071 100.9664 259.1449 15.08853932120497
Source of the keplerian elements: AFSPC